This demonstration page uses our WeatherBlox Daily Observations layout. Learn more.

Left ArrowRight Arrow

Hourly Observations for January 4, 2022

Temp ( °F °C ) Dew Point ( °F °C ) Humidity (%) Winds ( mph kmh ) Pressure ( in mb ) Visibility ( mi km ) Precip ( " mm )
12:53 am 00:53 Partly Cloudy 40 4.4 19 -7.2 43 43 SSE 12 19 30.27 1025 10 16 0.00 0.00
1:53 am 01:53 Mostly Clear 39 3.9 19 -7.2 45 45 SSE 8 13 30.25 1025 10 16 0.00 0.00
2:53 am 02:53 Mostly Clear 38 3.3 19 -7.2 46 46 S 8 13 30.23 1024 10 16 0.00 0.00
3:53 am 03:53 Clear 36 2.2 20 -6.7 52 52 SSE 8 13 30.21 1023 10 16 0.00 0.00
4:53 am 04:53 Clear 36 2.2 20 -6.7 52 52 SSE 13 20 30.18 1022 10 16 0.00 0.00
5:53 am 05:53 Clear 35 1.7 20 -6.7 54 54 S 7 11 30.20 1023 10 16 0.00 0.00
6:53 am 06:53 Clear 34 1.1 20 -6.7 56 56 SSE 8 13 30.20 1023 10 16 0.00 0.00
7:53 am 07:53 Mostly Sunny 36 2.2 21 -6.1 55 55 SSE 9 15 30.17 1022 10 16 0.00 0.00
8:53 am 08:53 Partly Cloudy 39 3.9 22 -5.6 50 50 S 12 19 30.16 1021 10 16 0.00 0.00
9:53 am 09:53 Mostly Sunny 44 6.7 23 -5 43 43 SSE 10 17 30.14 1021 10 16 0.00 0.00
10:53 am 10:53 Mostly Sunny 51 10.6 23 -5 33 33 S 12 19 30.11 1020 10 16 0.00 0.00
11:53 am 11:53 Mostly Cloudy 57 13.9 19 -7.2 23 23 S 12 19 30.04 1017 10 16 0.00 0.00
12:53 pm 12:53 Mostly Cloudy 58 14.4 19 -7.2 22 22 SSW 16 26 29.98 1015 10 16 0.00 0.00
1:53 pm 13:53 Partly Cloudy 61 16.1 21 -6.1 21 21 SSW 13 20 29.93 1014 10 16 0.00 0.00
2:53 pm 14:53 Mostly Sunny 62 16.7 22 -5.6 21 21 S 15 24 29.90 1013 10 16 0.00 0.00
3:53 pm 15:53 Partly Cloudy 62 16.7 23 -5 22 22 S 17 28 29.89 1012 10 16 0.00 0.00
4:53 pm 16:53 Mostly Sunny 62 16.7 24 -4.4 23 23 S 12 19 29.88 1012 10 16 0.00 0.00
5:53 pm 17:53 Mostly Clear 60 15.6 27 -2.8 28 28 S 10 17 29.89 1012 10 16 0.00 0.00
6:53 pm 18:53 Mostly Clear 57 13.9 28 -2.2 33 33 SSE 9 15 29.90 1013 10 16 0.00 0.00
7:53 pm 19:53 Mostly Clear 55 12.8 31 -0.6 40 40 S 9 15 29.90 1013 10 16 0.00 0.00
8:53 pm 20:53 Mostly Clear 55 12.8 33 0.6 44 44 S 9 15 29.90 1013 10 16 0.00 0.00
9:53 pm 21:53 Mostly Clear 53 11.7 35 1.7 51 51 SSE 6 9 29.90 1013 10 16 0.00 0.00
10:53 pm 22:53 Clear 47 8.3 34 1.1 61 61 Calm 29.90 1013 10 16 0.00 0.00
11:53 pm 23:53 Clear 46 7.8 35 1.7 66 66 E 3 6 29.90 1013 10 16 0.00 0.00

Powered by AerisWeather